Location: Maccacari
(45.1333°N, 11.1333°E)
Time: 00:58:57
(UTC+00:00)

Tiros 1 despin weight - Pass Details

Date: 28 January 2021
Orbit: 593 x 642 km, 48.2° (Epoch: 07 March)

Event Time Altitude Azimuth Distance (km) Brightness Sun altitude
Rises 16:20:02 0° 289° (WNW) 2,876 ? -1.2°
Reaches altitude 10° 16:22:21 10° 290° (WNW) 1,962 ? -1.6°
Maximum altitude 16:26:52 85° 20° (NNE) 609 ? -2.3°
Drops below altitude 10° 16:31:18 10° 108° (ESE) 1,931 ? -3.1°
Sets 16:33:34 0° 109° (ESE) 2,827 ? -3.4°
